[[{"header":{"parameterUnit":"m.s-1","parameterCategory":1,"la1":30.2991,"la2":30.254,"lo1":-89.0895,"lo2":-89.0444,"dy":0.0017,"dx":0.0017,"nx":28,"ny":28,"refTime":"2025-03-23T03:00:00:Z","depth":0,"parameterNumber":2,"parameterNumberName":"U-component_of_WINDS"},"data":[0,0,0,0,0,0,0,0,0,0,0,0,0,0,0,0,0,0,0,0,0,0,0,0,0,0,0,0,0,0,0,0,0,0,0,0,0,0,0,0,0,0,0,0,0,0,0,0,0,0,0,0,0,0,0,0,0,0,1.173,1.1728,0,1.1569,1.1567,1.1565,1.1505,1.1505,1.1506,1.1506,1.133,1.1325,1.132,0,0,0,0,0,0,0,0,0,0,0,0,0,1.1977,1.1973,1.173,1.1728,1.1726,1.1569,1.1567,1.1565,1.1505,1.1505,1.1506,1.1506,1.1332,1.1326,1.132,0,0,0,0,0,0,0,0,0,0,0,0,0,1.1848,1.1972,1.1731,1.1678,1.1671,1.157,1.1567,1.1564,1.1504,1.1505,1.1506,1.1507,1.1334,1.1326,1.1319,1.1255,0,0,1.1295,1.1292,0,0,0,0,0,0,0,0,1.1856,1.1839,1.1687,1.1681,1.1674,1.1558,1.1589,1.146,1.1504,1.1567,1.1506,1.1507,1.1405,1.1391,1.1359,1.1246,1.1239,1.1294,1.129,1.1286,1.1284,0,0,0,0,0,0,0,1.1865,1.1846,1.1666,1.1685,1.1677,1.1659,1.1641,1.1565,1.1483,1.1562,1.1557,1.154,1.1401,1.1366,1.1354,1.1236,1.1294,1.1288,1.1283,1.128,1.1065,1.1064,0,0,0,0,0,0,1.1884,1.1854,1.1671,1.1661,1.1769,1.1654,1.1634,1.1594,1.1484,1.1468,1.1539,1.1537,1.1379,1.1363,1.1348,1.1267,1.1286,1.1279,1.1274,1.1066,1.1065,1.1064,0,0,0,0,0,0,1.1889,1.1868,1.1678,1.1756,1.1731,1.1649,1.1604,1.1591,1.1556,1.1467,1.1451,1.1519,1.1379,1.1359,1.1279,1.126,1.1275,1.1268,1.1067,1.1066,1.1064,1.1104,0,0,0,0,0,0,1.1897,1.187,1.1847,1.1756,1.1727,1.1615,1.1603,1.1587,1.1544,1.154,1.1444,1.1429,1.1378,1.1291,1.1272,1.1249,1.1262,1.1069,1.1067,1.1065,1.1104,1.1104,1.1104,0,0,0,0,0,1.1906,1.1862,1.1846,1.1824,1.1696,1.1614,1.1596,1.1543,1.1543,1.1517,1.1461,1.1432,1.1266,1.1284,1.1261,1.1236,1.107,1.1067,1.1065,1.1104,1.1104,1.1104,0,0,0,0,0,0,1.1947,1.1849,1.183,1.1756,1.1695,1.1604,1.157,1.1544,1.1478,1.1476,1.1409,1.1388,1.1314,1.1267,1.1289,1.1169,1.1165,1.1159,1.1203,1.1202,1.1202,1.1214,1.1256,0,0,0,0,0,1.1949,1.1894,1.1809,1.1751,1.1722,1.1652,1.1614,1.1578,1.151,1.1482,1.1419,1.1351,1.1284,1.124,1.1173,1.1097,1.1075,1.1069,1.1069,1.1069,1.1063,1.1021,1.1017,1.1056,1.1056,1.1056,0,0,1.1949,1.1889,1.1857,1.1758,1.1706,1.1648,1.163,1.1568,1.1523,1.1471,1.1394,1.1346,1.1265,1.1189,1.1151,1.1147,1.1048,1.1066,1.1067,1.1061,1.1018,1.1015,1.1011,1.1055,1.1055,1.1055,0,0,1.1921,1.187,1.1818,1.1767,1.1691,1.1645,1.1633,1.1547,1.1514,1.1437,1.1397,1.1341,1.1226,1.1172,1.1128,1.1084,1.1055,1.1063,1.1062,1.1022,1.1019,1.1016,1.1,1.0995,1.1058,1.1058,1.1058,0,1.193,1.1844,1.1793,1.1735,1.1692,1.1648,1.1594,1.1546,1.1449,1.142,1.1418,1.1275,1.1217,1.1127,1.1117,1.1083,1.1066,1.1073,1.1024,1.102,1.1017,1.1001,1.0995,1.106,1.106,1.106,1.1059,0,1.1859,1.18,1.1767,1.1681,1.1634,1.1578,1.1516,1.1475,1.1445,1.1399,1.1321,1.1251,1.117,1.1146,1.1113,1.1052,1.1052,1.1038,1.1032,1.1016,1.1,1.0993,1.1062,1.1062,1.1061,1.1061,0,0,1.1849,1.1739,1.1728,1.1689,1.1603,1.1555,1.1496,1.1422,1.1388,1.1323,1.1272,1.1178,1.1166,1.1117,1.1078,1.1042,1.1013,1.1032,1.1029,1.1031,1.0941,1.0952,1.0946,1.0994,1.0992,1.0991,1.0948,0,1.1809,1.1707,1.1661,1.1579,1.1524,1.1482,1.1431,1.1372,1.1328,1.1273,1.1223,1.1158,1.1146,1.1117,1.108,1.1024,1.0993,1.1027,1.0943,1.0941,1.0964,1.0938,1.0948,1.091,1.0941,1.094,1.0939,0,1.1747,1.1689,1.1603,1.1527,1.1502,1.1457,1.1386,1.1335,1.1266,1.1237,1.1185,1.1149,1.1084,1.1085,1.0995,1.1019,1.0982,1.095,1.0947,1.0936,1.0938,1.0925,1.0897,1.0891,1.0929,1.093,1.093,0,1.1749,1.1648,1.1585,1.1553,1.1462,1.1432,1.1392,1.1325,1.1284,1.122,1.1193,1.1122,1.1082,1.1027,1.0972,1.0978,1.0887,1.0883,1.0859,1.086,1.084,1.0842,1.0805,1.0818,1.0818,1.0818,1.0818,0,1.1709,1.1657,1.1585,1.1545,1.1487,1.1434,1.1376,1.1332,1.1274,1.1223,1.1182,1.1135,1.1066,1.1009,1.0965,1.0897,1.0879,1.0852,1.0841,1.0856,1.0859,1.083,1.083,1.0817,1.0817,1.0817,1.0817,0,1.17,1.1649,1.1577,1.1499,1.1478,1.1439,1.137,1.1329,1.1286,1.1222,1.1204,1.1134,1.1066,1.1006,1.0914,1.0885,1.0815,1.0801,1.084,1.0833,1.0813,1.0816,1.0755,1.0744,1.0766,1.0765,1.0765,0,1.1677,1.1637,1.1557,1.1523,1.1486,1.143,1.1389,1.1336,1.1295,1.1217,1.1185,1.1115,1.1056,1.0949,1.0887,1.0818,1.0801,1.0785,1.079,1.0807,1.0801,1.0804,1.08,1.0785,1.0785,1.0785,1.0785,0,1.1641,1.162,1.1565,1.1503,1.1457,1.1404,1.1349,1.1323,1.1259,1.1214,1.1147,1.1102,1.1012,1.0942,1.0867,1.0822,1.0792,1.0785,1.0775,1.0789,1.0813,1.08,1.0839,1.0785,1.0785,1.0785,1.0785,1.0785,1.1624,1.1588,1.1528,1.1469,1.1424,1.1375,1.1334,1.1287,1.1231,1.1157,1.1128,1.1059,1.0993,1.0889,1.0845,1.0789,1.0783,1.077,1.0766,1.0764,1.0767,1.0824,1.0775,1.0774,1.0774,1.0774,1.0774,0,1.1587,1.1547,1.1494,1.1422,1.1376,1.1358,1.1297,1.1258,1.12,1.1143,1.1088,1.1011,1.0945,1.088,1.081,1.0777,1.0762,1.0761,1.0762,1.0752,1.0775,1.079,1.0774,1.0774,1.0775,1.0775,1.0775,1.0775,1.1562,1.1501,1.1472,1.1388,1.1348,1.1284,1.1251,1.1205,1.116,1.1078,1.1025,1.0985,1.0924,1.085,1.0788,1.0771,1.0746,1.0749,1.0727,1.0749,1.075,1.0751,1.0765,1.0744,1.0744,1.0709,1.0709,1.0708]},{"header":{"parameterUnit":"m.s-1","parameterCategory":1,"la1":30.2991,"la2":30.254,"lo1":-89.0895,"lo2":-89.0444,"dy":0.0017,"dx":0.0017,"nx":28,"ny":28,"refTime":"2025-03-23T03:00:00:Z","depth":0,"parameterNumber":3,"parameterNumberName":"V-component_of_WINDS"},"data":[0,0,0,0,0,0,0,0,0,0,0,0,0,0,0,0,0,0,0,0,0,0,0,0,0,0,0,0,0,0,0,0,0,0,0,0,0,0,0,0,0,0,0,0,0,0,0,0,0,0,0,0,0,0,0,0,0,0,4.8403,4.8403,0,4.8371,4.837,4.837,4.8285,4.8283,4.8282,4.828,4.8245,4.8246,4.8247,0,0,0,0,0,0,0,0,0,0,0,0,0,4.8393,4.8394,4.8403,4.8403,4.8402,4.8371,4.837,4.837,4.8286,4.8283,4.8281,4.8279,4.8245,4.8246,4.8247,0,0,0,0,0,0,0,0,0,0,0,0,0,4.8383,4.8394,4.8403,4.8357,4.8352,4.8371,4.837,4.837,4.8286,4.8283,4.8281,4.8278,4.8245,4.8246,4.8247,4.8308,0,0,4.8251,4.8251,0,0,0,0,0,0,0,0,4.8383,4.8383,4.8364,4.836,4.8355,4.8329,4.8354,4.8349,4.8287,4.8311,4.828,4.8277,4.8275,4.8274,4.8274,4.8307,4.8305,4.8251,4.8251,4.8252,4.8252,0,0,0,0,0,0,0,4.8384,4.8384,4.839,4.8364,4.8358,4.8337,4.8333,4.8353,4.8309,4.8309,4.8302,4.83,4.8272,4.8273,4.8272,4.8305,4.8251,4.8252,4.8252,4.8253,4.8388,4.8391,0,0,0,0,0,0,4.8392,4.8385,4.8391,4.8389,4.8363,4.834,4.8335,4.834,4.8308,4.8301,4.8302,4.8296,4.8272,4.8271,4.8271,4.8341,4.8252,4.8253,4.8254,4.8385,4.8389,4.8392,0,0,0,0,0,0,4.8392,4.8393,4.8393,4.8386,4.8384,4.8343,4.835,4.8341,4.8341,4.8303,4.8295,4.8311,4.827,4.8269,4.83,4.8339,4.8253,4.8255,4.8382,4.8386,4.839,4.8482,0,0,0,0,0,0,4.8392,4.8394,4.8416,4.8387,4.8385,4.8423,4.8352,4.8342,4.8344,4.8335,4.8309,4.8302,4.8268,4.8299,4.8301,4.8339,4.8255,4.8378,4.8384,4.8389,4.8475,4.8489,4.8501,0,0,0,0,0,4.8392,4.8442,4.8418,4.8419,4.8412,4.8425,4.8424,4.8383,4.8347,4.8369,4.8346,4.8303,4.8335,4.8303,4.8305,4.8343,4.8376,4.8382,4.8389,4.847,4.8486,4.85,0,0,0,0,0,0,4.8476,4.8437,4.841,4.8452,4.8443,4.8411,4.8437,4.8402,4.8402,4.8394,4.8344,4.8339,4.8377,4.8363,4.8329,4.8402,4.8348,4.8356,4.8409,4.8425,4.8437,4.8439,4.8256,0,0,0,0,0,4.85,4.8513,4.8479,4.852,4.8517,4.8479,4.8483,4.8453,4.8441,4.8436,4.8414,4.8404,4.8411,4.8417,4.8422,4.8474,4.8467,4.8501,4.8514,4.8524,4.8531,4.8558,4.8573,4.8414,4.8413,4.8413,0,0,4.8548,4.8529,4.854,4.8537,4.8525,4.8541,4.8475,4.8494,4.8506,4.8438,4.8466,4.8451,4.8436,4.8478,4.8495,4.8468,4.8574,4.8533,4.8541,4.8542,4.8567,4.8582,4.8595,4.8418,4.8417,4.8416,0,0,4.8644,4.8631,4.8665,4.8656,4.8641,4.8615,4.8624,4.8598,4.8585,4.8613,4.8563,4.8577,4.859,4.8582,4.858,4.8678,4.8639,4.8681,4.8746,4.8774,4.8786,4.8797,4.8833,4.8846,4.8688,4.8688,4.8688,0,4.8706,4.8728,4.8686,4.8709,4.8709,4.8651,4.8685,4.8678,4.8665,4.8667,4.8637,4.8655,4.864,4.868,4.8705,4.8705,4.8713,4.8683,4.8788,4.8799,4.8808,4.8841,4.8855,4.8693,4.8693,4.8692,4.8692,0,4.8806,4.8822,4.8851,4.8841,4.8845,4.8873,4.8836,4.8845,4.8816,4.8794,4.8824,4.8806,4.8807,4.8815,4.8786,4.8851,4.8835,4.8797,4.8742,4.8829,4.886,4.8872,4.8701,4.8699,4.8697,4.8696,0,0,4.8951,4.8921,4.8932,4.8928,4.8908,4.892,4.8947,4.8949,4.8958,4.8952,4.8973,4.8988,4.8954,4.8952,4.8922,4.8946,4.9026,4.8905,4.8904,4.8929,4.9098,4.9126,4.9141,4.9001,4.9003,4.9005,4.9099,0,4.9042,4.9086,4.905,4.91,4.9115,4.9062,4.9085,4.9077,4.9058,4.9068,4.9047,4.9059,4.9013,4.9011,4.9033,4.9011,4.9059,4.9004,4.902,4.9021,4.9024,4.9157,4.9186,4.9275,4.9111,4.9113,4.9114,0,4.9153,4.9154,4.9206,4.9186,4.9191,4.9212,4.9213,4.9223,4.9213,4.9198,4.9197,4.9161,4.9187,4.9135,4.9169,4.9133,4.9138,4.9129,4.9131,4.913,4.9072,4.9159,4.9303,4.9317,4.9132,4.9131,4.9129,0,4.9255,4.9269,4.9302,4.93,4.9277,4.9294,4.9285,4.9272,4.9276,4.9277,4.9279,4.9283,4.9284,4.9288,4.9255,4.9219,4.9294,4.9239,4.9282,4.9283,4.9299,4.9298,4.9445,4.9304,4.9303,4.9303,4.9303,0,4.9359,4.9393,4.9348,4.9368,4.9405,4.9365,4.9403,4.9389,4.9378,4.9395,4.935,4.9367,4.9322,4.9335,4.9309,4.9343,4.9344,4.9332,4.9325,4.9336,4.9337,4.9337,4.933,4.9307,4.9306,4.9305,4.9304,0,4.9478,4.9448,4.9481,4.9458,4.9453,4.9482,4.9462,4.948,4.946,4.9482,4.9485,4.9453,4.9466,4.9434,4.9441,4.9424,4.9472,4.9455,4.9476,4.947,4.9516,4.9512,4.9668,4.9686,4.9533,4.9535,4.9536,0,4.9546,4.9571,4.9551,4.956,4.9554,4.9569,4.9573,4.9536,4.9543,4.9535,4.9554,4.9564,4.9569,4.9593,4.957,4.9576,4.9559,4.9613,4.9559,4.957,4.9559,4.9558,4.9561,4.9623,4.9625,4.9627,4.9628,0,4.967,4.9656,4.9664,4.9669,4.9677,4.9678,4.9677,4.9687,4.9646,4.9657,4.967,4.9675,4.9684,4.9694,4.9696,4.9687,4.9652,4.9646,4.9656,4.9667,4.9678,4.9673,4.9506,4.9642,4.964,4.9639,4.9639,4.9638,4.9765,4.9786,4.9776,4.9788,4.9784,4.9784,4.9801,4.9784,4.9794,4.9799,4.9777,4.9796,4.9787,4.9786,4.9781,4.9795,4.977,4.9785,4.9789,4.9793,4.9801,4.9677,4.9795,4.9795,4.9795,4.9794,4.9794,0,4.9887,4.9879,4.9891,4.9891,4.9902,4.9869,4.9866,4.9877,4.9894,4.9889,4.9896,4.9913,4.9923,4.9903,4.991,4.9926,4.991,4.9929,4.9927,4.9926,4.9822,4.9813,4.9942,4.9942,4.9942,4.9942,4.9942,4.9942,4.9952,4.9986,4.9971,5.0002,4.9993,5.0012,5.0014,5.0014,5.0011,5.0031,5.004,5.0027,5.0017,5.0023,5.0032,5.0026,5.003,5.0056,5.0044,4.9947,4.9933,4.9919,4.9909,5.0057,5.0057,5.0146,5.0146,5.0147]}]]